Theta_e
364 365 365 365 366 367 367 368 367 367 367 367 366 366 366 366 365 366 367 366 367 367 368 368 368 368 368 368 367 368 369 368 368 367 365 363 364 365 364 363 362 360 360 358 355 354 354 351 350 350 351 349 348 345 344 348 347 345 345 344 343 345 343 341 337 338 342 344 340 340 344 345 344 347 345 344 348 348 346 348 350 346 343 344 348
364 365 365 364 365 365 367 368 367 367 367 366 366 365 366 366 367 368 366 367 368 366 368 368 368 368 367 369 369 368 369 369 367 366 364 364 364 364 364 363 363 362 360 359 357 354 355 353 351 351 351 350 349 347 345 344 345 342 343 343 343 343 345 342 339 337 337 344 343 344 341 346 341 347 345 342 343 347 347 345 347 346 345 346 347
362 365 364 364 365 366 366 366 367 367 366 366 364 363 365 367 368 366 365 365 368 368 367 368 370 369 369 368 371 369 369 369 369 367 365 365 364 364 364 364 363 361 359 358 358 356 355 355 352 352 350 349 349 348 346 345 345 344 343 343 343 342 345 346 341 338 338 338 344 343 342 344 342 342 346 345 346 346 346 346 345 344 346 345 345
360 363 364 364 365 365 365 365 365 365 363 364 363 364 364 366 367 366 366 364 365 368 368 368 369 370 369 369 370 370 369 369 369 368 366 366 366 366 366 365 364 362 360 359 358 357 355 354 353 351 351 349 348 347 347 347 345 345 344 345 345 344 345 348 345 341 339 338 342 343 342 342 342 342 344 346 343 344 345 347 346 345 348 348 347
359 361 363 362 362 364 364 364 364 364 363 363 363 363 363 364 366 366 366 364 365 368 368 369 369 370 368 369 370 370 369 370 368 366 367 368 368 367 366 366 364 363 362 361 358 359 357 355 354 353 352 350 349 346 347 347 347 346 345 345 345 345 344 345 347 345 340 339 340 346 345 343 344 345 345 342 343 344 346 345 344 347 347 347 346
359 360 361 361 362 363 364 364 363 363 363 362 362 362 362 363 364 365 366 365 365 365 367 367 367 369 370 370 370 371 371 370 369 367 366 368 367 366 366 365 364 364 363 362 361 360 358 357 356 355 353 351 350 348 349 348 348 347 347 346 345 346 346 345 346 346 343 340 342 342 346 342 344 344 346 345 341 341 344 346 347 346 346 345 343
359 359 360 360 362 363 364 363 362 362 364 363 362 362 362 361 362 363 365 365 364 363 364 367 367 368 370 370 370 371 371 369 369 369 368 368 368 367 364 365 364 364 363 361 361 360 359 358 357 356 354 354 352 350 350 350 349 349 349 348 347 346 345 344 345 345 343 341 341 343 342 345 345 341 345 347 346 343 341 342 343 347 348 347 345
358 358 360 360 362 362 364 365 363 363 364 365 364 363 363 363 363 365 365 365 364 364 363 364 367 368 368 370 371 371 371 370 370 370 369 367 367 366 365 364 363 364 363 363 361 360 359 358 356 357 356 356 355 353 353 352 352 351 350 350 348 346 344 342 343 343 342 341 339 340 341 341 343 344 344 348 344 343 343 341 337 339 342 347 348
358 358 360 361 363 365 366 366 366 365 364 366 365 364 364 365 365 365 366 365 365 364 364 364 366 367 368 369 370 370 369 369 369 369 368 368 368 365 365 364 364 363 363 362 361 360 360 359 357 357 358 353 347 348 348 349 354 352 352 352 350 347 346 343 343 342 343 342 340 341 340 339 340 341 338 340 340 338 344 344 341 341 343 344 347
359 359 360 362 364 366 367 367 367 366 365 365 367 366 365 366 365 365 365 365 367 366 366 365 364 365 366 367 369 368 368 370 356 341 346 367 367 365 365 364 364 363 363 361 360 360 359 358 358 350 346 343 342 342 342 344 346 352 354 353 350 349 347 344 342 343 343 341 339 339 338 337 337 340 340 340 343 344 343 345 341 342 345 343 343
360 360 361 364 365 367 368 367 367 366 366 366 367 367 366 365 366 366 366 367 367 367 366 364 363 363 365 366 366 367 368 366 340 334 336 341 361 366 364 364 364 363 362 362 360 359 359 359 360 355 349 345 349 341 342 342 342 342 346 349 348 351 348 344 343 343 341 341 341 340 338 338 339 341 341 340 343 343 343 343 342 342 341 338 335
358 362 362 365 365 367 368 368 367 366 366 366 367 368 367 366 366 367 366 366 367 367 365 365 365 364 364 365 365 366 367 345 332 332 334 334 342 365 365 364 363 362 362 361 361 360 359 358 359 359 356 355 354 352 345 339 337 338 337 340 342 341 341 349 346 344 344 340 340 340 340 339 340 341 339 339 342 344 344 343 345 343 340 338 338
361 363 363 365 367 367 368 368 367 367 367 367 367 368 367 366 366 366 365 367 368 367 366 365 365 365 364 364 364 365 366 340 331 329 331 331 333 346 363 364 362 362 362 362 361 361 360 359 358 358 359 345 349 353 353 349 336 333 334 335 337 336 332 332 337 348 345 341 340 339 339 340 340 341 342 342 344 342 344 342 342 340 340 339 338
362 363 363 365 366 366 367 367 367 367 367 367 368 368 367 366 366 367 367 367 366 366 366 366 366 366 365 365 365 365 366 338 328 325 327 328 330 339 361 362 362 362 362 362 361 361 361 360 358 357 359 356 354 354 355 353 349 345 344 345 345 342 334 331 332 336 342 344 342 340 342 344 341 344 345 347 344 341 339 339 342 341 340 339 341
360 363 362 363 365 366 366 366 365 366 367 367 367 367 367 367 367 366 365 365 365 366 365 365 366 366 366 365 364 364 364 333 324 323 323 324 327 333 360 360 361 362 363 363 362 361 362 361 361 359 359 358 355 352 354 353 351 348 346 344 344 345 345 343 343 344 345 343 344 344 345 346 346 346 348 351 346 346 344 343 343 343 341 340 340
360 363 362 363 364 365 364 364 364 365 366 366 365 365 365 365 366 366 365 364 365 365 366 366 365 365 366 365 363 363 364 330 322 321 321 322 325 347 358 359 360 360 362 361 359 359 359 359 360 360 360 359 346 335 345 355 353 350 348 346 345 345 346 342 336 338 345 346 346 345 347 353 341 350 348 346 347 347 343 341 340 339 336 335 333
360 362 362 362 363 363 364 363 363 364 365 365 364 364 364 365 366 367 365 364 363 364 365 365 365 363 362 362 362 362 362 340 320 319 320 320 328 353 357 358 359 359 360 360 359 359 358 359 358 357 358 359 342 328 332 342 352 350 349 348 347 346 345 347 334 330 330 329 329 332 322 320 322 324 327 330 345 341 340 336 334 335 335 331 332
360 362 362 362 364 364 364 364 364 364 365 364 364 364 364 366 366 367 364 363 361 363 364 364 364 363 363 363 361 361 362 342 316 317 318 317 331 354 356 357 358 359 359 359 358 358 358 346 353 357 356 357 329 326 328 341 351 349 349 347 345 344 345 346 348 346 329 329 328 326 324 324 324 325 326 327 326 335 340 333 336 335 332 331 328
357 359 361 362 364 364 364 365 365 365 365 364 364 363 363 365 365 366 365 364 363 364 364 362 362 364 363 362 344 355 362 343 315 317 316 316 332 356 357 357 356 358 358 357 358 356 357 349 340 346 350 348 322 323 324 336 351 350 349 346 343 343 345 347 347 345 344 344 344 343 340 334 341 342 338 326 330 337 341 340 338 334 332 329 326
360 361 361 361 363 364 364 366 366 364 364 365 366 365 365 364 364 364 365 364 363 363 362 362 362 363 363 362 361 361 361 365 335 315 315 314 321 354 359 356 356 357 358 356 355 355 355 358 346 329 329 328 318 319 320 325 348 350 349 345 343 343 346 347 345 345 345 343 344 343 343 344 343 343 343 337 335 338 340 341 339 336 332 328 327
362 362 363 361 361 363 363 364 364 364 365 366 366 365 364 363 364 364 362 363 363 363 363 363 362 363 363 363 364 364 363 362 348 313 314 314 317 331 358 357 358 358 358 355 355 353 353 354 356 333 323 321 315 315 316 319 330 349 349 346 347 346 343 346 344 344 345 344 343 341 342 342 342 340 339 340 338 338 337 339 338 335 332 328 326
363 364 364 363 361 362 363 365 366 365 366 365 366 365 365 365 365 364 363 363 364 364 365 363 362 361 362 362 364 363 355 342 367 317 315 312 315 319 350 358 358 359 358 357 355 354 354 355 356 336 321 318 315 313 313 316 321 345 352 330 329 328 348 347 346 343 342 341 339 338 338 337 335 336 337 338 336 335 336 337 336 335 334 331 329
365 365 365 363 363 363 364 365 366 365 364 365 366 366 366 366 366 366 366 365 364 363 363 362 360 359 359 362 361 362 367 361 334 334 314 312 312 316 326 344 335 360 358 356 356 355 356 356 353 329 319 314 312 312 313 314 318 336 324 321 319 324 338 345 345 341 339 338 337 335 335 335 334 334 334 336 336 337 335 336 335 334 334 332 332
365 363 363 363 363 363 364 364 366 366 365 365 365 366 365 366 366 366 366 364 362 360 359 360 358 357 356 357 360 362 366 364 338 325 326 312 313 313 317 324 330 352 357 357 357 356 356 357 349 319 315 310 310 311 313 315 328 320 316 317 320 328 343 344 341 341 338 335 335 335 335 335 334 335 334 336 335 338 337 335 335 333 333 333 333
362 361 361 362 363 363 363 364 365 366 366 366 365 364 366 366 363 364 363 362 360 357 359 358 357 358 357 356 357 358 361 362 364 340 320 315 313 312 315 319 322 325 352 357 357 356 340 330 323 312 313 311 311 311 313 314 317 318 316 316 328 343 342 340 339 338 336 334 335 335 336 337 337 337 339 339 338 337 336 332 332 333 333 334 333
364 361 361 362 362 363 362 362 364 366 366 365 366 366 366 364 362 362 362 359 359 359 358 356 356 357 357 358 357 359 360 361 362 361 328 321 316 314 315 317 321 321 332 350 336 332 325 321 316 314 314 316 323 327 327 324 318 319 318 321 342 341 339 339 338 336 334 334 333 333 335 337 337 338 340 339 335 333 331 330 330 329 330 328 327
363 364 364 363 364 363 362 360 360 362 365 362 362 362 362 361 360 359 360 359 358 357 357 357 357 356 356 357 359 359 361 360 362 363 350 340 332 327 322 325 318 320 332 348 339 346 332 328 328 321 321 318 324 324 326 322 322 326 330 336 341 340 339 339 338 337 336 335 334 335 336 337 338 338 335 334 333 333 332 330 327 328 327 327 326
362 362 361 362 362 362 361 358 359 360 359 359 358 358 359 359 358 358 358 358 358 357 357 355 355 356 355 357 358 358 358 359 360 360 356 348 343 339 332 332 335 338 342 349 353 354 341 323 321 328 327 325 329 331 332 330 329 331 335 338 339 338 336 336 337 340 339 337 336 336 336 338 334 334 335 333 329 328 331 328 327 326 326 327 325
358 358 356 356 356 359 362 362 360 359 360 361 360 361 361 360 360 363 365 363 356 354 357 358 360 362 361 358 357 355 357 357 360 338 360 331 342 344 338 336 339 341 336 332 349 343 336 332 332 329 327 327 329 331 331 330 332 334 336 338 338 338 337 337 336 337 338 335 335 336 334 334 334 333 331 327 327 328 332 330 330 328 329 326 321
352 352 353 353 353 353 355 356 357 356 357 357 357 357 345 324 340 353 354 336 320 313 319 345 349 346 346 350 354 354 356 360 330 319 319 316 317 321 324 323 324 335 329 324 333 339 335 333 330 327 326 328 329 330 330 331 332 333 335 329 335 335 336 335 336 336 337 336 336 334 333 332 331 329 326 325 327 329 331 326 330 329 326 323 321
346 346 346 347 347 350 350 352 352 351 351 351 352 349 353 356 318 315 324 325 317 308 305 306 306 310 332 340 340 325 322 318 314 316 312 308 312 314 314 315 315 317 319 327 336 336 333 331 329 329 328 330 330 330 331 331 331 332 333 334 336 335 333 335 334 334 335 334 334 333 332 330 328 326 325 325 328 328 329 328 329 329 327 324 322
343 343 343 344 344 347 347 348 348 347 346 346 346 344 341 343 347 325 317 322 315 307 306 304 302 302 304 311 320 336 323 314 312 313 315 309 308 310 311 311 311 312 312 319 334 333 333 331 330 330 330 330 330 330 331 331 332 333 333 332 331 333 332 332 333 335 334 333 333 331 330 328 326 325 325 325 324 326 326 326 325 324 324 323 322
344 344 344 344 342 343 343 345 345 344 343 343 342 342 337 335 334 337 351 314 311 314 310 304 302 302 304 303 302 303 306 307 305 305 308 308 307 308 309 309 309 309 311 324 334 331 332 331 330 330 330 330 330 330 329 330 330 331 330 330 329 331 331 334 333 335 332 332 331 330 327 326 325 325 323 324 324 325 325 323 323 323 323 322 320
345 346 344 345 345 344 343 345 344 343 345 344 343 340 337 338 338 340 337 338 343 330 309 303 303 303 303 303 304 305 305 304 303 302 302 304 305 307 308 314 308 307 315 330 334 331 331 330 330 330 331 330 329 328 327 328 328 329 329 331 332 331 333 336 335 333 330 331 330 327 327 326 325 325 325 324 325 324 323 322 323 322 322 319 319
343 341 341 344 345 344 344 344 344 344 344 344 342 338 339 340 341 338 337 337 336 336 338 347 319 310 326 318 310 305 303 302 302 301 301 301 302 305 305 317 314 312 318 334 333 331 330 330 330 330 330 329 328 328 328 329 329 329 329 330 331 332 332 333 331 331 331 329 328 326 327 326 326 325 325 325 324 323 323 322 323 321 319 319 319
344 344 344 344 343 343 343 345 344 343 343 343 343 340 340 339 336 336 334 336 337 337 337 340 340 324 313 308 305 303 301 300 299 299 299 299 300 302 314 319 319 318 321 332 332 331 331 331 331 330 330 329 330 330 331 331 332 332 331 331 330 331 332 331 330 331 330 329 327 326 324 327 327 326 326 325 325 323 322 322 322 319 320 320 318
343 342 341 342 343 344 343 344 344 342 336 338 340 341 340 341 337 337 336 336 335 337 338 341 338 337 329 332 321 309 305 303 301 299 298 298 298 306 316 321 322 323 324 330 331 330 331 331 331 330 330 329 329 331 332 333 334 334 327 333 333 332 331 331 331 329 329 328 327 328 329 328 328 328 326 324 322 323 322 322 321 319 319 316 314
342 341 342 343 344 343 342 341 340 336 340 341 343 341 340 341 340 336 335 338 336 336 336 337 327 334 333 334 330 332 330 315 309 306 303 297 303 310 315 321 325 325 326 330 329 330 330 331 331 330 330 330 330 332 333 334 335 334 333 334 333 332 324 328 327 330 330 329 328 329 328 327 328 326 325 324 321 321 320 321 319 317 316 311 312
344 330 327 329 334 342 341 340 339 339 339 339 338 337 336 337 336 336 337 338 336 336 336 335 334 332 331 329 329 329 331 332 328 323 319 317 315 316 318 323 325 326 329 330 329 329 329 329 330 331 331 331 331 332 333 333 333 332 331 330 330 330 328 329 329 330 328 328 327 328 326 325 325 323 323 321 320 319 319 318 316 315 314 312 311
341 341 337 330 337 337 339 341 339 339 338 337 336 337 338 337 336 336 336 338 334 335 335 335 332 331 329 326 323 325 334 333 332 332 326 321 322 326 327 327 328 328 329 329 329 328 328 330 330 330 330 331 331 331 331 331 331 330 330 329 328 327 328 329 329 328 326 327 325 324 324 323 323 321 321 319 318 318 318 316 314 315 314 314 314
343 343 341 335 334 340 340 339 339 339 339 339 338 338 337 336 337 337 336 335 335 333 335 334 333 333 330 316 305 308 332 332 332 332 331 328 326 325 325 327 327 326 327 327 328 328 329 329 329 330 330 330 329 329 330 330 330 329 328 326 326 326 327 328 327 325 325 324 324 323 322 321 320 320 318 317 313 315 316 315 315 313 313 314 312
341 340 341 341 342 340 338 337 339 341 341 341 340 338 339 337 337 337 335 336 333 332 333 334 335 336 322 307 306 303 327 329 329 330 329 326 323 323 324 325 326 328 328 327 327 328 328 328 329 329 329 328 328 329 329 330 329 329 327 325 325 325 324 324 325 324 324 323 323 322 321 320 319 318 318 312 316 317 317 314 314 314 313 312 311
340 340 340 340 340 340 338 339 340 339 339 339 338 337 337 337 337 337 336 335 335 334 333 333 335 335 330 314 315 313 333 330 327 326 326 325 323 323 324 324 324 325 326 327 329 329 329 329 328 328 328 328 329 329 329 328 327 326 325 324 323 322 322 323 323 323 323 323 322 321 320 319 317 317 317 316 316 315 314 314 313 313 313 313 313
337 336 336 336 337 338 337 337 336 338 338 337 337 337 337 337 337 337 336 336 336 335 334 333 334 334 334 330 328 328 332 331 329 327 325 324 324 323 323 323 323 323 325 325 327 328 329 328 328 328 329 329 329 329 328 328 326 324 322 322 322 322 323 323 323 323 322 321 320 319 318 318 317 316 315 315 315 314 314 314 313 312 312 311 311
336 335 334 334 335 334 334 336 333 335 334 335 335 336 337 338 338 337 335 335 334 335 333 334 332 333 333 334 331 329 329 330 328 327 326 326 326 324 323 322 322 323 324 325 327 327 327 327 327 326 325 326 327 326 326 325 324 323 323 323 323 322 322 323 323 323 322 321 318 318 317 317 316 315 315 315 314 314 313 313 312 312 311 310 310
333 333 331 332 331 332 331 332 331 333 333 332 333 334 335 335 335 334 333 333 333 333 333 334 334 333 333 332 329 327 328 328 327 325 325 325 325 325 325 324 324 324 325 326 327 328 327 327 326 325 324 324 324 324 324 325 325 326 326 325 323 323 324 324 324 322 320 320 318 318 316 317 316 315 315 315 313 313 314 313 313 311 310 309 308
331 330 331 330 329 329 329 331 330 329 331 330 330 331 331 332 333 333 333 330 331 332 332 332 331 331 331 331 329 327 326 327 326 324 324 323 323 323 323 324 323 324 326 327 328 329 329 328 327 326 325 324 324 323 323 324 324 324 324 323 324 323 323 322 321 321 320 319 319 317 316 316 315 315 313 314 314 312 312 312 311 310 309 308 307
326 326 327 328 328 328 328 329 328 327 328 328 329 328 328 329 330 330 331 330 330 330 331 331 331 331 329 329 328 327 326 326 325 324 324 324 323 324 323 324 324 324 323 324 325 325 326 326 325 325 325 324 323 323 322 322 321 321 321 322 322 323 321 314 322 320 320 319 319 318 317 315 314 314 312 312 312 311 310 309 309 308 308 306 306
322 323 323 325 325 325 326 326 325 326 326 326 326 326 326 326 327 327 327 327 328 329 330 330 329 330 329 327 327 327 326 326 325 325 325 324 323 324 324 323 323 323 323 323 324 324 325 326 325 324 325 325 324 322 320 320 319 320 320 321 314 302 302 306 313 318 313 318 318 317 316 315 314 313 312 311 310 310 309 310 309 307 305 305 305
319 320 320 321 322 323 324 325 325 325 324 325 324 324 324 324 324 324 324 324 325 325 326 327 328 329 328 326 326 325 325 326 325 324 325 325 325 324 325 324 324 324 324 325 324 324 324 323 324 324 324 323 322 321 319 319 319 318 318 315 297 295 296 297 300 302 312 316 316 315 314 313 312 311 310 310 310 310 309 307 307 307 305 305 306
318 317 318 318 318 319 320 321 322 322 321 321 322 322 321 321 320 320 321 321 322 323 324 325 326 326 326 326 325 324 326 327 326 325 325 325 326 327 327 326 325 325 324 324 323 322 322 323 323 322 322 320 319 318 318 317 318 318 305 296 295 296 296 301 311 299 302 306 315 312 311 310 310 309 308 307 307 306 306 306 305 305 304 305 307
Wind_Speed
21 19 18 19 19 19 19 19 19 16 17 16 16 15 14 15 14 13 12 13 13 14 14 14 14 13 14 13 13 13 13 13 12 12 12 12 12 12 11 12 13 11 11 11 10 10 10 11 10 11 10 10 8 8 9 9 9 8 8 8 8 8 8 8 8 7 6 5 5 5 5 5 6 7 6 6 6 6 7 6 5 6 6 5 5
20 19 19 18 21 20 20 19 18 17 18 17 17 16 15 15 15 14 14 14 14 14 15 13 13 14 14 13 13 13 13 13 13 12 13 13 13 11 12 13 13 11 11 11 11 9 10 11 11 11 11 11 10 10 9 9 10 9 9 9 8 8 9 8 8 7 7 6 6 6 5 6 6 6 7 8 7 6 7 6 6 6 5 5 6
21 19 19 19 21 20 19 18 18 19 20 17 19 18 17 16 15 16 15 14 14 14 14 14 14 14 14 13 13 13 13 13 13 13 13 14 14 14 13 13 13 12 13 12 12 11 11 12 12 11 10 11 11 10 10 10 10 10 10 9 9 9 9 9 8 8 8 7 6 6 7 6 7 6 8 7 6 6 7 7 7 6 6 6 6
20 20 19 20 21 20 19 19 20 20 20 18 20 19 17 16 16 16 16 15 14 14 14 15 14 14 14 14 14 13 14 13 13 13 14 14 14 14 13 13 13 13 13 13 13 13 13 13 13 13 12 12 11 10 10 10 10 9 10 9 9 9 8 8 9 7 7 7 6 7 5 6 7 7 6 6 7 7 7 7 7 7 6 6 6
20 21 21 22 21 20 21 20 20 21 21 19 21 20 19 17 15 17 16 16 16 14 14 14 14 14 14 14 14 14 14 14 14 14 14 14 14 14 13 13 13 13 13 13 13 13 14 14 13 13 13 12 12 11 11 12 11 10 10 10 9 9 8 8 8 8 8 8 6 6 6 6 5 6 7 7 7 7 7 8 7 7 8 8 6
20 20 20 21 20 22 21 21 21 22 21 20 21 20 19 18 17 16 17 17 17 16 15 14 14 15 14 14 14 14 14 14 14 14 15 15 13 13 13 13 13 13 13 14 14 14 14 14 13 13 14 14 12 12 12 13 11 11 11 10 9 9 9 9 8 8 8 8 7 6 7 7 7 7 7 7 7 7 7 8 8 8 7 7 7
20 20 20 21 19 21 21 21 20 21 20 20 18 18 19 20 19 18 17 17 17 17 16 16 14 15 15 14 15 15 15 15 14 14 15 15 14 14 14 14 13 13 13 14 14 15 15 14 14 14 14 14 14 13 13 13 11 12 11 11 10 10 9 9 9 9 9 9 8 8 7 7 7 7 7 7 7 7 7 7 8 7 7 7 7
20 20 19 19 19 20 20 20 20 19 18 18 18 18 18 18 18 17 16 17 18 18 18 17 15 14 15 15 15 14 14 14 15 15 15 15 13 14 14 14 14 13 13 14 14 14 15 15 15 14 14 14 14 13 13 12 11 11 10 10 10 10 10 9 9 9 9 9 9 8 8 7 7 7 5 6 7 7 7 7 8 7 7 6 6
20 20 19 19 19 19 18 17 17 17 18 17 18 18 18 17 17 16 16 16 15 17 17 17 16 15 15 15 15 14 14 14 13 14 15 16 14 14 14 14 14 13 13 14 14 14 14 14 14 14 14 14 16 13 13 11 10 11 10 10 11 10 10 9 9 9 9 9 9 9 8 8 8 8 8 8 8 8 7 8 7 6 5 6 5
18 19 19 19 17 17 17 16 16 17 17 18 18 18 17 16 16 17 17 17 15 15 16 16 16 16 16 16 16 14 14 13 14 18 16 14 15 13 13 14 14 13 13 13 14 15 15 14 13 15 14 15 15 15 13 11 12 10 10 11 11 10 10 10 10 10 9 9 9 9 10 9 9 9 8 8 8 7 7 6 7 6 5 6 5
17 18 18 16 15 16 15 16 16 18 18 17 16 17 17 16 15 16 16 16 16 15 15 17 17 16 17 16 17 15 14 13 18 19 19 18 14 13 13 13 13 13 13 13 13 14 14 14 13 12 12 12 14 14 13 11 12 11 8 10 11 11 11 11 11 10 10 9 9 9 9 10 9 8 9 8 7 7 6 6 6 6 6 6 7
18 17 17 15 15 16 15 16 16 17 17 18 18 17 16 17 16 16 16 17 15 15 16 17 16 16 15 17 17 16 15 16 19 21 21 20 17 13 12 12 12 13 13 13 13 13 13 13 12 11 12 14 13 12 14 14 13 14 13 10 10 11 11 9 10 11 11 11 10 10 10 10 8 8 8 7 6 6 6 6 6 6 6 7 6
16 16 15 15 16 15 15 16 17 17 18 18 16 16 16 17 17 17 18 16 15 16 16 16 17 17 16 17 17 17 16 16 19 21 21 21 21 17 13 12 12 13 13 14 13 13 12 12 11 10 9 14 13 13 13 13 14 15 14 13 12 12 12 12 10 10 10 11 11 11 11 9 9 8 7 6 5 6 5 6 6 6 6 6 6
15 15 15 15 15 15 16 16 16 17 16 15 15 16 16 17 17 15 14 15 15 16 17 17 16 17 17 17 16 15 17 15 21 21 22 23 22 20 15 14 14 13 13 13 13 14 14 12 12 11 10 11 12 13 12 12 12 12 12 11 12 13 12 11 12 13 12 10 11 12 10 10 9 7 6 6 7 7 6 6 5 6 5 6 5
15 15 16 16 16 16 17 17 16 15 15 15 15 16 16 16 16 15 15 15 16 16 16 17 16 16 17 16 15 16 15 16 21 23 23 24 23 21 16 15 14 14 14 14 14 15 15 13 13 13 12 12 12 14 13 13 12 12 13 14 13 13 13 14 14 13 12 13 12 12 10 9 9 8 6 5 7 5 4 4 4 4 4 4 5
15 14 16 17 17 17 18 17 16 15 15 16 17 17 17 18 18 16 15 15 15 15 15 16 17 17 16 18 17 17 16 18 21 23 24 23 25 16 17 17 16 15 15 15 15 14 15 16 14 14 13 13 14 17 15 12 13 13 13 12 12 12 13 14 14 13 14 13 13 13 11 6 1 5 4 5 5 4 3 4 5 5 6 6 7
16 16 16 16 16 16 15 15 15 15 15 16 17 18 18 18 17 14 16 16 16 16 16 16 16 17 18 19 19 17 18 17 21 24 24 25 20 15 16 15 16 16 16 16 15 15 15 16 18 15 14 14 15 20 17 14 14 14 13 13 11 12 12 11 14 15 14 12 12 5 9 9 9 10 8 2 2 2 4 5 6 7 7 8 6
16 14 14 14 14 14 15 16 16 17 16 18 18 18 17 15 16 15 16 16 16 17 16 15 16 16 18 20 19 18 18 16 21 22 24 24 22 17 15 16 16 16 16 16 14 14 16 19 18 17 15 15 18 21 20 16 14 14 12 12 12 12 11 9 7 9 13 8 5 8 7 9 9 8 8 7 4 3 7 8 7 7 8 7 7
15 14 14 14 14 15 16 17 17 17 17 18 17 17 16 16 15 14 16 16 16 15 15 15 15 15 17 19 16 19 18 14 20 21 24 25 21 15 15 15 16 16 15 15 15 15 16 14 17 17 17 15 21 21 21 19 15 15 12 12 13 13 13 12 11 10 8 9 8 6 6 7 7 6 6 5 5 7 8 9 7 7 7 7 9
13 14 14 14 14 15 15 15 16 16 16 14 13 14 13 13 15 15 15 14 14 15 14 15 17 16 15 16 15 18 19 13 16 23 24 23 25 16 15 15 16 18 17 15 15 16 16 14 15 20 18 14 19 21 21 21 15 15 13 13 14 13 13 12 13 12 12 13 13 13 11 9 8 7 8 7 6 9 9 9 8 7 7 8 8
12 12 12 14 14 14 13 14 15 15 14 13 13 13 13 13 13 13 14 12 12 13 15 14 14 14 15 15 15 17 16 18 13 24 24 26 28 23 18 18 17 16 16 16 16 17 17 17 13 19 20 16 18 21 22 21 17 13 14 13 12 12 11 11 13 10 11 11 11 11 11 10 10 10 9 9 8 8 9 10 10 8 8 7 6
9 11 11 12 13 13 13 12 12 12 13 12 12 12 12 12 12 13 12 12 14 14 13 13 13 13 14 15 15 17 17 18 12 21 24 26 27 30 19 21 18 16 16 16 16 16 18 16 13 17 23 19 20 21 23 22 21 11 11 11 11 10 10 10 9 9 10 11 11 11 11 11 10 10 9 9 9 9 9 9 9 8 7 7 6
8 9 10 10 11 11 11 12 10 10 11 12 12 12 11 12 13 12 13 13 14 16 16 16 15 15 16 13 16 16 14 12 16 15 23 24 28 29 28 19 16 16 16 16 17 16 16 17 16 21 26 23 21 22 22 24 19 13 14 13 12 13 11 12 11 12 12 11 12 11 11 11 11 10 10 9 9 8 9 9 8 8 6 6 4
6 8 9 9 10 10 10 11 11 10 11 11 12 12 12 12 12 12 12 13 13 15 15 14 15 16 17 17 14 14 12 15 12 18 20 28 26 28 29 27 19 18 18 15 15 15 16 16 15 21 25 23 23 23 22 21 16 19 13 14 15 13 12 11 10 11 12 12 12 12 11 11 10 10 10 8 8 9 8 7 6 7 7 6 5
6 7 8 8 9 9 9 9 10 10 10 11 11 11 13 13 13 13 14 14 14 15 13 15 14 14 15 16 15 15 15 14 13 16 25 26 27 27 28 29 25 21 18 17 15 16 15 17 17 19 21 23 23 21 19 21 21 21 16 15 14 11 13 13 12 12 13 13 12 11 10 10 9 8 8 8 8 6 7 6 7 7 7 6 5
4 5 5 6 7 8 9 9 10 10 10 10 10 10 11 12 13 13 14 13 13 14 14 14 13 13 14 14 15 15 13 14 15 13 14 20 22 27 29 28 28 23 20 18 17 14 14 17 19 21 20 19 15 12 10 13 19 19 17 15 13 15 14 14 13 14 14 14 13 12 11 9 9 9 7 6 7 8 8 8 8 8 8 7 6
4 4 4 4 5 5 7 7 8 8 10 10 10 10 10 11 12 12 12 12 13 13 13 13 14 14 15 14 13 11 10 15 15 16 10 12 12 17 19 18 24 22 15 14 13 10 13 15 14 16 14 19 17 15 13 14 13 11 10 10 14 16 16 14 15 14 14 13 13 11 9 9 8 7 8 8 8 8 8 8 8 8 8 7 6
5 4 4 4 3 5 7 6 4 5 7 8 8 8 9 10 9 9 10 10 10 11 12 13 12 13 15 15 15 14 15 16 16 18 11 12 13 12 12 13 14 15 16 17 17 12 10 12 15 11 10 11 11 10 10 10 11 11 13 15 15 15 16 16 14 13 13 13 10 9 8 9 10 9 9 9 9 8 9 9 8 8 7 7 7
6 7 5 5 4 5 3 2 4 5 6 6 5 2 6 5 4 4 5 5 5 5 6 6 7 9 11 13 14 15 16 17 18 16 12 15 15 14 15 15 15 14 20 22 16 11 12 10 9 12 12 12 11 11 11 10 11 12 15 17 17 16 15 15 15 14 14 12 10 10 10 10 9 9 9 9 9 9 9 8 8 7 7 7 8
6 5 5 5 5 4 3 3 3 3 2 1 4 4 8 7 4 3 5 8 8 5 5 3 5 6 7 8 8 11 14 14 17 16 14 18 22 24 23 25 25 22 24 25 13 11 11 11 13 13 13 12 12 13 13 12 13 16 16 15 15 16 15 14 15 13 13 11 10 10 9 10 11 10 10 10 9 9 9 9 8 8 8 9 8
6 6 6 5 4 3 4 4 4 4 3 3 2 2 2 4 7 5 2 3 4 8 6 6 8 8 7 7 10 17 19 23 24 25 19 15 22 25 25 27 28 29 24 18 12 13 14 12 12 13 16 15 15 14 13 14 14 15 16 12 12 10 11 13 14 14 12 10 10 10 10 12 11 10 10 10 10 9 9 8 7 8 8 9 10
7 7 6 6 6 6 6 5 5 5 5 4 4 3 3 4 5 4 3 1 4 6 7 9 10 10 11 10 9 11 17 21 24 24 25 18 22 25 27 28 30 30 26 29 19 15 15 14 14 14 14 14 14 14 14 15 15 13 12 11 11 9 10 14 13 13 13 12 9 11 12 12 10 10 10 10 9 9 9 9 9 10 10 9 10
8 8 7 7 6 6 6 6 5 5 5 5 5 4 4 4 4 3 3 7 6 6 7 9 10 10 12 14 15 14 18 21 24 25 25 20 24 28 29 29 28 30 28 22 18 18 18 17 16 15 14 14 13 12 11 11 10 9 7 9 10 10 12 12 12 13 13 12 12 13 12 11 10 10 10 10 10 9 9 9 9 9 9 10 9
9 7 6 6 6 5 5 5 5 5 4 4 3 3 4 4 3 3 4 3 2 7 10 11 10 10 11 14 16 18 20 22 23 24 25 24 23 26 28 27 29 29 28 22 19 18 18 18 18 19 18 17 16 16 16 15 15 15 13 10 7 10 11 11 11 11 13 12 13 12 11 11 10 10 10 9 9 8 9 9 9 9 9 9 9
9 9 10 6 5 5 4 4 4 4 3 3 2 3 3 2 2 3 4 5 5 7 7 2 6 8 9 11 14 17 19 21 22 24 24 22 23 24 23 19 18 20 23 23 19 17 17 17 18 19 18 19 18 17 17 16 14 13 13 13 11 9 8 9 12 14 13 13 12 11 11 10 11 10 9 9 9 10 11 11 11 9 9 9 9
8 7 7 7 6 5 4 4 4 4 3 3 2 2 2 2 3 4 4 4 5 6 6 6 7 9 12 12 13 15 17 18 18 20 22 22 21 20 15 17 19 21 23 21 20 22 21 20 19 18 18 17 16 15 16 17 16 14 12 12 11 10 9 9 9 10 12 12 11 11 11 10 10 10 10 10 11 11 9 8 7 8 8 8 7
6 6 6 5 5 4 4 4 4 4 3 2 2 2 2 2 3 4 4 4 6 6 7 6 8 9 9 6 9 15 18 17 17 17 19 19 21 17 16 19 21 22 23 21 20 22 22 20 20 18 17 16 15 15 15 15 15 14 13 13 13 12 11 10 10 11 12 11 11 10 10 10 9 10 9 9 8 8 8 8 8 7 7 7 7
9 7 6 5 4 4 3 3 4 1 0 1 2 2 2 2 3 4 4 5 6 6 7 8 8 9 11 12 17 14 14 16 16 13 9 10 11 11 16 18 16 17 17 15 16 17 17 17 16 17 15 14 14 13 13 14 14 13 13 13 13 11 11 10 12 11 10 10 10 10 10 9 9 9 9 8 9 9 8 8 8 7 7 6 6
7 6 3 7 3 4 3 3 3 2 2 2 3 2 2 3 3 4 4 4 5 5 6 6 7 8 11 13 13 16 16 13 13 11 11 8 4 7 12 13 12 12 13 15 15 15 14 14 14 15 15 16 15 13 13 13 13 13 12 12 11 10 12 11 11 10 11 10 11 10 9 9 9 8 8 8 8 8 8 8 8 7 8 8 9
4 4 6 9 2 4 4 2 2 2 3 4 3 3 3 3 4 4 4 3 4 5 5 5 7 7 9 11 13 13 13 13 13 13 8 6 5 4 4 8 7 12 15 12 16 18 16 15 15 15 14 13 13 14 14 14 13 12 12 11 11 11 11 10 10 10 10 10 9 9 9 9 8 8 7 7 7 8 8 8 8 8 8 8 8
5 5 5 5 3 4 3 3 3 3 3 3 3 4 4 3 4 5 5 5 4 5 5 5 5 7 8 12 15 14 9 11 11 12 10 9 10 9 12 3 12 3 1 16 16 16 16 15 14 14 15 14 13 13 13 12 12 12 12 11 11 11 11 11 11 10 10 10 9 9 9 8 8 8 8 8 7 7 8 7 7 8 7 7 6
5 5 4 4 3 4 4 4 5 4 2 2 2 3 4 4 4 4 5 5 5 6 6 6 4 5 9 17 16 16 9 10 11 11 11 11 9 10 13 18 13 11 6 8 11 14 15 15 14 12 12 12 13 13 13 13 12 12 12 11 10 11 11 10 10 10 10 10 9 9 9 8 8 8 8 8 8 7 7 8 7 7 8 8 8
5 5 5 4 5 5 5 5 6 5 5 5 4 4 5 6 6 5 5 5 5 5 5 7 6 3 4 8 12 13 6 9 10 11 11 9 9 11 13 13 12 11 9 9 9 9 11 13 13 13 13 13 12 11 12 12 11 11 10 11 11 10 10 10 10 10 10 9 9 9 9 9 9 8 8 8 7 8 7 8 8 7 8 7 6
5 4 4 5 5 4 5 5 5 6 6 7 5 4 5 6 6 6 6 6 6 5 5 5 6 5 4 3 6 7 6 7 8 9 10 9 10 9 10 9 10 9 8 7 8 9 10 11 11 12 12 12 11 11 10 10 9 10 10 9 9 10 10 10 10 10 10 9 9 9 9 9 9 8 8 8 8 7 8 8 8 7 7 7 7
6 6 6 5 5 5 5 5 6 5 5 4 4 4 5 5 6 5 6 6 7 7 6 5 5 6 5 5 5 6 5 5 7 7 8 9 8 8 7 7 8 8 7 5 5 8 10 11 12 12 12 11 10 10 10 9 9 8 9 10 10 10 10 10 9 9 9 9 8 9 8 8 9 8 8 8 7 7 7 8 8 7 7 6 5
8 7 7 6 6 6 7 6 7 6 6 6 6 5 4 5 5 5 5 6 6 7 7 7 6 6 5 4 4 4 4 4 5 6 6 6 6 6 6 7 8 7 7 6 6 8 9 10 11 12 12 12 11 10 10 9 8 8 8 8 8 9 8 8 8 8 8 8 8 8 8 8 8 8 7 7 7 7 7 7 8 7 7 7 7
8 7 7 7 7 6 6 6 7 7 6 7 7 7 6 6 5 5 5 5 6 6 6 6 6 6 6 5 3 3 1 2 3 3 5 6 5 6 7 7 8 7 7 7 7 8 9 10 10 11 12 11 11 11 10 8 8 8 8 8 8 8 7 7 7 8 8 8 8 8 8 8 8 7 8 7 7 8 8 7 7 7 7 6 6
9 8 8 8 8 7 7 7 7 7 7 7 8 8 8 8 7 7 7 7 6 6 6 5 5 5 5 4 3 3 2 2 3 3 4 5 6 6 6 7 7 7 8 8 8 8 7 8 10 9 10 11 11 11 10 8 8 8 8 8 6 6 7 7 7 7 7 7 8 7 8 8 7 7 7 8 7 7 7 7 6 6 6 6 6
10 9 9 9 8 8 8 8 8 8 9 8 8 8 9 9 8 8 8 8 8 7 7 6 5 5 4 4 4 3 3 3 3 4 4 6 6 7 5 5 6 8 8 9 8 9 8 7 9 9 9 9 10 10 10 10 10 9 8 7 10 15 11 8 7 6 6 7 7 6 6 6 6 6 7 7 7 6 6 7 7 7 7 7 6
10 10 10 10 10 9 9 8 9 9 9 9 9 9 9 9 9 9 9 8 8 8 8 7 6 5 4 4 4 3 3 4 4 5 6 6 7 8 7 6 6 7 7 8 8 8 8 8 8 8 9 10 10 9 9 9 9 9 8 9 13 13 12 12 12 11 8 6 6 6 6 6 6 6 6 6 6 6 6 6 6 6 6 6 6
11 11 11 11 10 10 10 10 10 10 10 10 9 9 10 10 10 10 10 9 9 9 9 8 7 6 6 6 5 3 3 3 5 6 6 7 6 6 6 7 7 7 7 7 8 7 8 8 8 9 9 10 9 9 8 9 8 8 12 15 14 14 14 11 9 7 5 5 7 6 6 6 7 7 6 6 6 6 6 6 6 6 6 6 6
Wind_Direction
192 195 195 199 198 197 199 200 203 204 204 204 207 208 208 210 211 211 206 209 207 206 207 208 208 207 208 206 207 204 201 200 196 193 194 200 209 212 204 198 208 211 210 202 202 197 201 205 205 205 206 207 209 210 209 204 208 212 212 211 214 208 214 217 231 234 232 225 240 247 209 219 203 211 222 220 204 192 217 230 199 212 219 242 194
194 194 196 198 199 200 200 200 200 202 204 205 205 207 208 208 209 208 209 207 207 208 206 207 208 208 209 206 204 204 201 201 198 196 195 195 204 208 204 191 199 199 205 204 200 200 200 206 207 205 205 210 211 213 212 207 206 210 208 213 213 213 206 219 222 237 239 204 225 232 236 198 243 202 218 224 219 199 204 210 211 219 239 226 248
193 193 195 197 200 200 200 201 200 201 203 204 207 207 207 207 205 207 208 208 206 209 208 208 205 206 208 207 203 203 200 200 202 201 198 196 198 205 199 189 193 196 199 203 201 200 203 207 208 206 204 208 212 216 214 213 211 212 212 212 217 217 210 212 223 228 233 236 219 221 214 211 225 213 214 227 232 216 209 213 210 217 220 242 251
192 192 193 197 198 198 200 201 201 202 204 207 208 209 208 206 205 208 208 210 207 206 209 209 206 204 206 206 203 200 199 200 201 204 202 198 196 197 195 193 195 197 197 199 202 202 207 209 211 207 204 206 210 212 216 213 214 213 213 216 217 223 221 211 219 234 236 239 216 222 211 209 206 228 223 216 224 213 219 217 220 231 230 227 227
193 193 195 197 197 198 200 201 202 204 207 207 208 208 209 208 206 208 208 210 210 205 206 208 207 204 206 204 203 202 200 201 202 207 209 203 199 198 196 195 197 198 199 199 202 205 208 213 211 207 203 205 206 211 212 213 213 212 213 212 216 218 221 218 216 223 233 237 234 210 222 217 221 216 215 218 217 225 219 230 226 221 225 235 240
193 193 196 198 197 198 198 200 203 205 207 209 209 209 210 210 209 206 208 209 209 208 206 206 206 205 206 204 204 203 203 203 203 206 210 208 202 201 198 198 200 200 200 200 201 205 210 213 214 208 205 204 207 207 210 212 211 215 213 212 213 214 215 216 218 219 225 235 238 227 209 218 209 219 213 219 230 226 222 222 225 229 229 234 241
192 194 196 198 197 198 198 200 203 205 205 208 210 210 211 211 211 210 206 209 208 209 208 207 206 207 206 205 205 204 204 205 205 205 211 213 203 201 201 201 203 202 203 203 203 206 211 214 215 212 208 206 208 206 205 208 211 213 212 212 214 214 213 214 212 216 220 226 228 236 234 215 221 215 206 216 227 240 241 230 225 216 222 231 234
192 194 195 197 197 197 198 199 201 203 204 205 207 210 210 211 211 210 208 208 210 209 209 206 205 205 205 206 205 204 204 206 205 205 209 212 204 202 203 202 204 205 204 205 206 208 211 215 216 213 211 207 209 209 206 206 206 211 208 209 212 214 217 215 213 214 217 219 226 226 225 228 220 229 207 193 216 220 230 239 241 233 224 214 225
193 193 193 195 197 195 194 196 199 200 201 202 205 208 210 210 210 210 209 210 210 211 209 208 205 204 204 205 205 204 205 205 204 204 209 209 204 203 203 204 204 205 205 205 207 210 213 216 219 218 208 208 206 212 209 202 203 204 204 202 208 212 216 220 215 217 216 221 223 223 230 229 231 227 221 210 215 225 213 217 234 238 241 233 216
193 194 196 197 194 189 189 191 194 196 198 200 202 204 207 207 208 209 210 211 210 210 210 209 209 205 204 205 204 205 206 206 200 196 200 204 201 203 203 206 207 208 205 207 207 209 213 217 219 214 201 196 202 207 210 201 204 210 198 196 202 209 214 219 220 217 219 221 223 223 224 226 224 217 223 221 220 222 224 214 235 239 230 244 248
194 195 198 195 187 185 186 190 190 194 198 198 199 201 204 206 208 208 209 209 210 208 209 210 211 210 207 206 205 207 207 206 190 188 192 196 200 202 203 205 207 208 208 206 208 208 213 216 223 201 195 192 201 200 204 198 195 207 209 203 204 207 210 216 223 221 223 227 226 227 231 230 227 224 223 230 220 218 224 225 237 237 238 251 261
194 195 194 186 184 185 188 188 191 194 194 197 198 198 199 204 206 206 207 208 208 209 208 210 212 212 211 211 210 209 210 199 182 186 187 188 194 202 206 207 206 209 211 208 208 210 211 214 214 215 207 206 206 198 202 200 198 203 206 206 211 219 230 230 223 224 227 233 231 232 237 231 230 224 226 226 216 213 222 232 229 240 246 251 255
195 195 191 186 186 188 188 190 192 194 196 196 196 196 198 203 207 207 208 207 207 210 210 209 211 213 214 214 215 213 217 190 183 182 185 187 190 199 211 210 211 211 210 210 209 210 211 212 213 209 209 182 196 206 204 202 202 204 206 211 213 212 221 238 260 260 238 230 238 238 234 238 233 225 227 233 223 235 227 231 233 234 245 248 263
194 193 191 191 189 190 193 194 195 198 196 195 196 199 200 205 207 208 210 208 211 213 212 212 212 213 214 216 216 219 221 187 181 180 184 186 188 194 211 212 218 218 213 209 210 211 209 209 208 205 202 182 196 201 203 201 199 203 209 213 217 215 220 228 234 246 261 256 238 236 236 234 235 231 222 219 221 235 237 245 237 244 241 255 267
193 191 192 192 191 192 194 196 198 196 195 195 197 202 204 207 208 209 211 212 212 214 213 213 215 216 216 217 218 220 224 189 180 180 183 184 186 191 205 212 214 217 213 208 213 216 214 210 207 205 198 191 192 193 197 198 209 207 208 212 215 218 217 220 221 224 226 233 243 238 236 232 234 231 220 213 230 234 245 265 266 254 256 267 255
192 192 192 192 193 196 196 196 196 194 195 195 200 203 206 208 208 207 211 214 216 216 215 216 215 215 218 225 224 222 225 191 180 181 183 184 181 190 202 209 212 212 213 214 213 215 220 220 215 207 199 199 181 180 194 198 202 208 207 209 213 220 227 223 214 209 216 219 224 229 235 226 229 232 227 217 200 191 194 236 248 241 245 241 244
196 195 196 194 195 196 197 194 194 196 196 196 201 204 205 208 209 205 210 214 214 215 217 216 217 220 221 223 224 225 229 197 182 181 183 181 177 195 200 207 213 215 216 212 211 214 214 213 217 213 208 209 171 174 181 193 210 211 212 208 213 217 219 217 182 184 198 214 221 211 82 104 103 104 111 87 328 238 209 227 228 223 220 236 234
199 198 197 195 193 192 193 193 194 195 197 200 203 206 207 207 209 205 211 213 217 219 218 220 221 219 219 221 219 222 229 201 182 182 181 179 184 193 196 203 210 213 216 215 213 215 216 209 211 213 211 212 164 175 176 184 202 209 209 210 210 216 216 205 156 176 179 175 125 107 116 108 119 125 135 148 150 208 199 224 229 226 231 233 253
200 199 198 195 194 193 194 196 197 196 199 204 204 204 205 206 207 205 211 214 218 220 220 222 223 221 222 225 219 224 230 208 178 181 182 181 188 197 197 202 205 211 211 212 212 216 220 207 201 210 212 199 164 173 175 185 198 207 201 208 212 212 210 188 176 166 171 187 187 166 142 143 142 164 152 150 158 215 219 225 232 237 239 254 265
196 197 198 196 196 198 200 199 201 202 204 205 204 207 208 211 210 209 213 215 218 220 220 222 222 221 221 223 221 221 227 222 177 183 181 183 191 198 206 204 208 208 206 207 208 215 216 213 191 202 214 192 166 171 177 186 194 202 202 206 209 209 203 191 193 193 194 203 204 204 206 184 183 180 177 169 192 205 216 226 233 237 244 252 259
194 194 195 198 200 201 203 203 204 206 206 205 203 206 208 213 214 215 218 220 223 223 223 225 225 227 227 225 227 224 224 228 183 184 183 183 190 198 209 212 211 205 206 205 207 209 208 211 199 191 197 188 171 173 177 186 196 197 204 205 204 202 196 192 183 180 186 198 200 195 198 194 202 211 212 207 206 206 210 220 233 241 253 251 243
191 193 194 199 203 204 206 206 205 208 207 206 207 210 210 212 215 218 218 219 222 222 225 227 229 231 234 235 235 237 231 218 210 183 186 187 189 199 206 215 211 205 205 209 207 209 207 199 201 178 187 182 179 175 179 184 194 198 198 197 188 175 187 189 170 180 191 194 193 193 198 201 205 211 211 208 213 203 212 211 216 224 217 229 246
184 189 192 198 204 206 205 204 201 203 206 206 210 210 209 212 215 218 222 225 229 233 234 236 236 238 241 234 238 236 232 223 201 181 190 192 195 198 206 213 205 217 214 210 208 208 209 203 200 170 182 180 178 177 179 185 186 194 189 176 158 165 179 194 179 186 195 191 195 198 200 199 205 203 212 205 214 208 209 220 208 210 217 227 211
180 190 194 199 201 203 203 203 203 206 206 207 209 213 214 213 215 221 223 228 231 238 239 239 240 241 243 242 241 237 234 236 204 189 188 196 197 200 204 210 201 208 218 221 214 205 205 197 192 168 178 177 178 178 179 180 184 189 176 162 161 165 186 193 175 188 195 191 197 199 200 203 201 202 211 209 207 206 212 206 200 192 202 202 193
182 193 194 197 200 204 207 209 208 207 205 205 209 212 217 221 226 228 233 234 236 241 241 242 241 243 244 244 243 243 238 229 232 199 193 191 197 200 206 207 212 208 210 222 219 217 201 184 170 163 177 178 177 175 176 180 183 183 172 163 161 181 188 197 186 185 194 196 198 196 196 203 198 199 200 199 204 165 176 202 188 193 191 199 195
172 185 193 198 201 205 208 208 210 209 210 211 214 221 224 228 232 233 233 235 237 239 243 245 243 244 246 247 246 245 238 240 234 227 185 191 195 202 206 207 210 212 217 221 220 211 187 170 157 168 174 176 169 172 169 178 183 176 165 168 179 190 191 195 188 189 194 196 197 197 196 190 195 197 175 160 168 174 183 188 187 188 194 193 198
146 152 170 177 186 206 211 212 208 207 215 220 223 227 232 238 238 236 237 241 241 240 241 244 243 245 250 249 250 245 236 243 240 238 173 186 193 205 205 210 213 213 219 224 222 210 171 160 161 166 167 173 173 167 165 164 168 168 168 179 188 191 191 193 191 191 194 194 196 195 194 192 189 152 147 170 180 182 181 187 194 194 198 203 210
129 126 146 170 174 193 197 194 220 218 211 215 224 229 233 233 235 235 237 240 249 251 249 248 246 247 254 256 254 251 249 247 244 244 210 188 197 190 188 197 201 206 212 212 212 192 160 152 139 141 143 154 168 165 169 167 171 171 178 186 190 194 188 193 186 194 194 194 187 188 190 188 182 166 175 181 184 182 183 189 201 203 199 206 222
105 99 81 65 79 57 69 106 193 219 220 216 211 21 18 10 2 349 351 18 12 355 325 304 294 284 277 269 263 258 254 250 245 242 222 192 187 183 185 197 198 201 209 205 195 158 136 141 140 154 161 162 164 170 166 165 171 177 180 186 191 189 185 190 189 191 190 187 185 184 187 182 178 181 183 180 179 182 184 189 196 210 206 229 236
113 113 111 107 100 94 78 98 62 55 39 3 8 17 97 87 51 345 332 1 24 97 140 278 296 309 301 293 292 282 274 275 306 312 259 195 190 193 195 194 197 201 204 197 175 165 163 160 165 162 164 163 166 168 167 166 169 178 185 185 187 186 185 187 190 189 188 183 181 178 178 183 193 185 182 179 174 186 183 189 192 201 213 230 236
103 94 88 81 65 99 117 108 93 84 75 69 52 22 304 81 80 87 113 314 320 320 307 263 248 238 222 274 274 267 269 274 276 276 276 228 201 199 201 199 199 204 193 171 180 177 177 175 171 172 174 171 169 164 162 164 169 176 179 177 182 175 176 190 192 187 181 176 181 179 188 193 188 182 179 182 177 185 182 190 203 197 216 228 238
94 91 91 97 95 86 88 82 82 86 83 86 92 89 85 104 109 111 119 116 295 282 285 290 288 288 280 268 278 291 282 274 270 267 258 229 217 211 206 201 200 195 185 177 187 184 182 174 171 177 176 171 167 161 163 165 169 170 164 169 179 173 174 192 190 185 181 182 182 191 194 191 186 178 182 181 184 184 198 199 212 222 229 233 241
99 101 104 104 99 81 82 79 82 85 89 91 82 66 76 69 57 67 169 198 214 239 256 254 265 279 285 289 275 262 269 278 282 282 276 248 221 216 213 206 198 192 181 184 190 176 179 182 174 169 171 166 161 155 143 138 133 138 152 176 177 171 186 192 180 180 177 182 191 193 192 189 181 176 184 182 186 195 206 208 208 222 228 234 239
81 85 87 86 81 80 78 78 83 85 78 68 63 83 71 48 40 11 352 358 253 242 236 237 248 263 266 266 270 275 276 274 276 271 267 262 245 229 213 210 200 186 178 189 185 184 179 176 171 168 168 161 157 152 150 154 161 163 160 170 186 184 185 179 172 172 179 185 195 189 190 184 180 179 181 188 185 199 212 206 207 218 224 230 238
89 77 64 59 77 76 77 80 78 79 74 69 75 73 74 51 7 356 348 344 335 328 342 327 207 220 281 295 294 281 275 276 276 275 270 261 251 243 230 215 202 199 192 187 184 179 174 173 171 169 167 163 162 160 159 156 157 163 163 163 164 170 177 174 180 179 186 188 192 189 186 186 183 185 179 184 198 205 216 213 209 214 221 231 233
65 64 67 66 63 63 67 62 52 50 36 46 32 35 21 13 354 346 332 322 325 324 325 336 334 309 291 279 281 293 293 287 275 270 269 259 246 230 216 208 203 193 195 191 181 176 172 175 173 168 164 161 158 157 156 156 159 158 159 152 142 150 169 177 183 183 183 186 191 184 181 189 183 183 191 197 207 216 223 216 209 201 209 216 218
62 68 66 56 47 54 57 59 58 32 19 9 7 10 6 7 345 335 331 338 335 328 324 339 340 322 313 307 312 295 292 291 292 290 275 257 234 219 222 217 205 200 195 192 181 173 171 170 166 160 159 158 158 157 154 152 148 147 147 146 149 162 168 176 180 175 181 185 186 181 183 187 184 187 199 200 204 206 207 203 204 203 196 210 213
54 49 58 45 60 67 53 55 50 275 54 13 41 348 5 351 350 326 328 335 333 321 328 344 343 335 338 337 331 329 313 312 315 308 291 263 237 222 218 221 216 204 199 188 168 163 159 157 154 151 147 148 146 148 146 143 141 141 144 147 154 156 155 167 170 171 177 181 181 184 187 185 182 186 193 190 188 197 203 201 198 190 183 168 198
86 109 41 316 33 31 52 34 40 17 31 333 36 3 359 343 344 327 326 332 334 328 330 338 344 347 339 335 330 325 328 352 350 336 326 319 258 233 230 226 207 203 189 170 155 145 141 146 143 140 140 142 143 139 138 136 137 141 143 141 145 151 158 167 169 173 174 179 184 182 186 181 181 186 189 195 191 194 195 194 193 197 188 194 210
65 80 48 333 15 65 24 36 16 359 13 344 8 343 348 353 332 324 324 328 328 327 322 339 353 343 334 339 340 333 345 358 2 358 15 47 33 339 227 235 240 191 166 160 148 139 139 140 138 132 131 136 137 135 135 136 136 136 137 143 147 148 157 163 167 170 174 174 176 180 184 178 177 179 181 196 194 189 192 191 192 197 198 203 199
55 55 52 61 329 328 41 357 17 9 7 359 331 321 356 332 320 320 327 321 325 321 323 343 354 338 344 333 333 343 1 3 357 5 18 50 65 27 6 292 152 53 210 136 134 134 130 130 128 132 131 133 139 132 132 133 135 140 143 146 147 152 160 166 166 169 173 174 177 177 178 173 174 179 182 190 186 188 183 190 190 195 202 213 212
34 36 32 39 34 24 6 1 356 358 331 318 319 330 323 316 317 317 318 313 314 314 320 325 335 344 346 341 338 338 9 15 2 7 24 12 29 46 37 33 32 71 65 86 105 112 118 120 119 120 122 126 126 127 131 136 141 145 146 145 148 154 160 162 165 168 171 175 177 177 175 175 173 181 181 183 182 187 184 186 195 192 202 203 211
29 33 33 27 25 28 12 356 349 349 357 360 358 351 313 301 308 307 298 303 303 309 315 314 319 343 342 331 332 334 20 22 24 21 17 13 21 44 47 52 42 30 30 42 64 90 105 112 117 122 125 120 122 127 136 140 141 137 141 144 147 152 156 159 164 169 173 177 178 174 174 169 171 180 181 184 181 183 196 187 196 197 198 204 200
27 31 43 38 27 28 29 10 2 356 353 344 323 312 322 314 309 312 314 315 311 312 303 310 313 315 318 334 342 358 12 18 30 28 26 18 20 42 57 62 65 56 40 48 75 84 98 104 107 109 108 110 114 119 123 129 132 135 136 139 146 155 160 162 167 171 176 177 174 171 174 172 173 182 179 177 189 190 190 190 194 200 200 201 211
29 24 19 19 17 11 15 19 3 357 354 340 344 343 331 321 324 331 328 320 321 315 308 312 308 308 317 2 12 356 3 25 28 32 33 38 40 35 46 63 82 89 92 80 79 97 102 105 111 108 107 108 114 117 119 125 129 132 138 147 154 156 158 162 169 173 176 174 169 171 175 173 178 186 181 178 191 191 194 190 194 195 204 216 204
26 22 21 18 20 17 11 15 5 356 358 360 347 338 335 326 328 328 325 320 319 316 319 315 320 314 319 1 25 15 4 16 48 56 54 50 48 43 45 56 57 64 71 81 94 99 104 110 110 113 113 117 117 120 121 124 132 136 141 143 142 151 156 161 166 169 172 174 171 173 180 179 181 186 182 178 186 192 198 191 194 195 202 207 211
38 31 26 26 26 30 29 24 22 7 3 5 360 353 346 345 343 338 333 330 318 318 315 322 324 322 326 339 11 57 34 27 49 78 90 89 79 75 76 77 85 80 73 76 78 94 102 104 108 114 118 119 120 122 126 127 128 129 130 138 144 147 153 158 159 164 167 173 175 183 178 183 179 181 174 184 182 187 202 196 196 192 199 208 196
28 29 28 21 21 21 22 19 22 18 16 11 9 360 359 352 355 351 346 333 328 326 319 312 316 315 315 337 13 54 61 92 104 89 90 88 89 87 86 95 101 98 95 89 85 79 73 91 107 106 113 117 120 118 114 110 108 116 124 131 139 126 106 125 152 158 165 173 179 181 178 181 176 179 169 184 196 185 191 197 198 198 201 202 209
31 28 27 26 22 23 23 22 20 16 17 13 15 8 6 358 0 356 350 345 338 335 330 331 330 326 343 359 8 57 92 93 96 92 80 90 92 87 71 76 89 97 100 103 103 102 101 104 109 107 107 107 108 110 112 114 118 120 117 106 95 103 112 130 158 142 145 166 170 174 166 176 170 173 169 182 197 200 197 203 202 201 195 200 201
33 32 29 27 24 23 16 19 22 24 22 18 17 17 10 7 5 5 357 351 346 349 341 338 332 345 354 2 17 46 86 86 90 89 88 92 96 92 81 71 76 84 95 104 110 119 125 123 112 103 107 106 107 107 113 120 122 122 117 109 112 103 97 95 96 108 146 172 164 168 165 169 163 168 173 181 191 202 203 204 203 198 199 197 195
37 34 33 30 25 22 22 20 21 23 22 18 20 21 18 15 12 9 2 0 358 357 359 359 3 10 16 29 38 62 49 69 97 98 94 90 89 95 94 93 90 87 86 94 106 108 114 114 111 108 107 112 115 121 124 125 129 114 110 118 118 115 117 124 138 152 159 153 161 156 160 161 164 175 178 185 189 193 202 199 197 200 206 198 200